Wind_Speed
5 5 6 6 7 7 8 8 9 9 10 10 10 10 11 12 12 13 13 14 15 15 16 17 17 18 19 18 18 18 18 17 18 18 18 18 18 17 17 16 16 16 15
5 5 6 6 7 8 9 9 10 11 11 11 10 11 12 12 13 13 14 15 15 16 17 18 18 19 19 19 18 18 18 18 18 18 18 18 18 17 17 17 17 17 16
6 7 7 7 8 9 9 10 11 11 11 11 11 12 13 13 14 14 15 15 16 16 17 18 19 20 20 19 19 19 19 19 19 19 19 18 18 18 17 17 17 17 17
7 8 8 8 9 9 10 11 11 12 12 12 12 12 13 14 15 15 16 16 16 17 18 19 19 20 20 20 20 20 19 19 19 19 19 18 18 18 18 18 18 18 17
9 9 9 10 9 10 10 11 12 12 13 13 13 13 14 15 16 17 17 18 18 19 20 20 20 20 20 20 20 20 20 20 20 20 20 20 19 19 19 19 19 19 19
11 11 11 11 10 11 11 12 13 14 14 14 15 15 15 16 17 18 18 19 19 20 21 21 21 21 21 21 21 21 20 20 21 21 21 21 21 21 21 20 20 20 20
12 12 11 11 12 12 13 14 15 15 16 16 16 16 17 17 18 18 19 20 21 22 22 22 22 21 21 22 22 22 22 21 22 22 22 23 23 22 22 21 21 21 22
13 12 12 12 13 14 14 15 17 17 17 17 17 17 17 18 19 19 20 21 22 22 23 23 23 23 23 23 23 23 23 23 23 23 24 24 24 24 23 22 22 23 23
14 14 14 14 15 16 17 17 18 19 19 19 19 18 19 19 20 21 22 22 23 23 24 24 24 24 24 24 24 25 24 24 25 25 25 25 25 24 24 23 23 23 23
16 16 16 17 18 19 19 20 21 21 21 20 21 21 21 22 22 23 24 24 25 25 25 25 26 26 25 25 25 26 26 26 26 26 26 25 25 24 24 24 24 24 24
18 18 19 20 20 21 22 22 22 23 23 22 22 23 24 24 24 24 25 25 26 27 26 27 27 27 27 27 26 27 27 28 27 26 26 25 25 25 25 26 26 26 26
20 21 22 23 23 23 23 24 24 24 24 24 24 24 24 25 26 26 27 27 27 28 28 28 28 28 28 28 28 28 28 28 27 27 26 25 25 25 26 27 28 28 28
23 23 24 25 25 25 25 26 27 27 26 26 27 26 26 26 27 28 28 29 29 29 29 29 29 29 29 29 29 29 29 28 28 27 27 26 26 27 27 27 27 28 29
26 26 26 26 27 27 28 28 29 29 29 28 29 29 29 29 29 30 31 31 31 30 31 31 31 30 30 30 30 30 30 30 29 29 28 28 28 28 28 28 29 29 29
28 29 29 28 28 29 30 30 30 31 30 30 31 31 31 31 31 32 32 32 32 32 32 32 32 31 31 31 31 31 31 31 31 31 30 30 30 30 29 29 30 30 30
31 31 31 31 31 31 32 33 33 33 32 31 31 32 32 33 34 34 34 34 33 33 33 33 33 33 32 32 31 31 32 33 33 33 32 32 32 32 32 32 32 32 32
33 33 34 33 33 33 34 34 34 34 34 34 34 35 35 35 35 35 35 35 34 35 35 35 35 35 34 34 33 33 34 34 34 34 34 34 33 33 34 34 34 34 34
33 34 34 35 35 35 36 36 36 36 35 36 36 36 36 36 36 37 37 37 37 37 37 37 36 36 36 35 35 35 35 36 35 35 35 35 35 35 35 35 35 35 35
35 36 36 37 37 37 38 38 37 37 37 37 37 37 37 37 37 38 38 38 38 37 37 38 38 37 37 37 37 36 36 36 36 36 36 36 36 37 36 36 36 36 36
37 38 38 39 39 40 39 39 39 39 38 38 38 38 38 38 38 39 39 39 38 38 38 38 38 38 38 37 37 37 37 37 37 37 37 37 37 37 37 37 37 37 36
40 40 40 40 40 40 39 39 40 40 40 40 39 39 39 40 39 39 39 40 40 40 40 40 39 39 38 38 37 37 37 37 37 36 36 36 36 37 37 37 37 37 37
39 40 40 41 41 40 40 40 40 40 40 41 40 39 39 40 41 41 40 41 41 42 42 41 41 41 39 38 38 39 38 37 37 36 36 36 37 37 37 38 38 38 38
39 40 41 41 42 42 41 41 40 40 41 41 41 41 41 41 41 42 41 41 42 43 43 42 41 41 39 39 39 38 37 36 36 36 36 36 37 37 38 38 38 38 38
39 39 40 40 40 41 41 40 40 40 40 41 41 41 42 42 43 43 43 44 44 43 42 41 40 39 38 37 37 36 36 36 36 36 36 37 37 37 37 37 37 37 37
39 39 40 39 40 39 39 39 38 39 40 41 42 42 42 43 43 44 44 44 43 41 40 39 39 38 36 36 36 36 36 36 37 37 37 38 38 37 37 36 36 36 36
39 39 39 39 39 39 39 39 38 40 41 41 41 42 42 43 43 43 43 42 41 40 39 39 37 37 36 35 35 36 36 37 37 37 38 39 39 38 37 35 35 35 35
Wind_Direction
353 350 351 349 349 348 347 347 347 345 341 338 338 336 337 337 338 337 336 336 334 334 334 334 333 331 331 330 328 326 322 319 316 316 314 313 313 311 308 307 306 304 304
340 338 338 340 341 341 341 341 340 340 339 337 334 335 336 336 336 336 334 333 333 333 332 331 331 331 331 330 328 325 321 320 320 320 318 317 315 312 310 308 307 305 304
328 328 326 328 332 332 333 336 335 335 337 337 336 334 334 334 333 332 331 332 331 330 331 330 328 328 328 328 327 326 325 323 322 321 319 318 316 314 313 310 309 307 304
317 319 320 320 322 322 325 330 332 331 330 330 328 330 333 334 333 332 330 329 328 328 329 328 327 326 325 324 324 324 324 323 322 320 319 318 316 313 312 310 308 307 304
307 310 310 313 314 316 318 323 326 326 327 327 326 326 329 329 329 329 329 328 327 326 326 326 325 324 323 323 322 322 322 322 321 320 319 318 315 311 309 308 307 306 305
298 303 306 309 310 312 314 318 321 322 322 324 324 324 325 326 326 327 327 327 327 326 325 323 322 322 322 322 321 320 318 318 318 317 316 315 314 312 308 306 306 306 304
294 297 303 307 307 308 311 313 316 318 318 319 319 319 321 321 322 323 324 324 324 324 324 322 322 321 318 318 318 317 315 314 314 315 314 313 312 311 308 306 306 305 304
292 295 299 303 306 308 309 310 314 314 314 315 317 318 318 319 319 318 318 319 321 322 322 321 320 320 318 316 316 316 314 311 311 312 312 312 310 307 305 305 304 304 304
286 290 294 297 302 304 306 309 312 312 310 310 311 313 314 315 315 316 315 316 317 318 318 319 318 318 317 316 315 314 313 311 309 309 309 310 308 305 304 304 303 304 303
282 286 289 293 296 300 303 307 307 309 309 308 308 310 311 312 312 313 314 314 315 316 316 316 316 315 313 314 315 314 313 311 309 309 309 308 308 307 305 304 304 304 304
283 287 289 292 294 297 300 303 305 307 309 309 310 309 310 311 312 313 313 313 314 315 315 315 315 314 312 311 312 313 313 312 310 309 309 307 305 306 304 302 302 303 304
282 286 289 292 293 295 297 299 302 304 305 306 308 308 309 310 311 312 312 312 313 314 315 314 314 312 311 311 311 311 311 311 310 309 307 306 307 306 305 304 303 303 303
280 284 286 289 290 292 294 296 299 302 303 304 305 305 307 307 309 309 310 311 311 311 313 313 313 311 310 309 309 310 310 310 309 308 306 306 306 306 306 305 304 303 303
279 281 283 284 287 291 294 295 296 297 299 300 301 303 305 305 306 306 307 307 308 308 310 311 311 310 310 308 308 308 309 310 308 308 306 305 305 306 306 305 304 303 303
277 279 281 283 285 288 291 293 294 297 297 298 299 300 302 303 304 304 304 305 305 306 307 308 308 308 308 308 307 306 307 308 307 306 305 304 304 305 305 305 305 303 303
274 277 280 282 285 286 289 291 292 293 294 296 297 299 300 301 301 302 302 303 303 304 305 305 305 305 305 305 304 304 304 306 306 305 303 303 303 303 303 304 305 304 303
273 276 278 280 283 284 287 290 290 291 291 293 295 296 298 298 298 299 300 302 302 302 302 302 302 302 302 302 302 301 301 302 303 303 302 302 303 303 303 302 302 303 303
271 273 276 278 280 282 284 286 288 289 290 290 292 293 294 295 296 296 298 299 300 300 301 300 300 300 300 300 300 300 301 301 302 302 301 301 301 302 302 301 302 303 303
271 273 275 277 280 282 284 285 287 287 288 289 290 290 292 293 294 295 296 297 298 299 299 299 298 297 297 297 298 298 299 300 300 300 299 299 300 301 301 301 302 302 302
271 273 274 276 278 280 282 283 285 286 287 287 288 289 290 290 292 293 295 296 298 299 299 299 298 298 298 297 297 297 297 297 298 297 298 298 298 298 298 299 301 301 301
271 272 274 275 276 278 280 281 283 284 285 285 287 289 290 291 292 292 294 296 297 298 298 299 299 298 297 296 296 295 295 295 296 296 297 298 297 297 297 298 299 300 300
272 273 274 274 275 277 278 280 282 283 283 285 287 287 289 292 293 294 294 296 297 297 297 297 297 297 296 295 295 294 293 293 293 294 294 296 297 297 297 297 297 298 300
274 275 274 275 276 276 277 278 280 282 283 285 286 287 289 292 293 294 295 297 297 297 296 295 295 295 295 295 295 293 292 293 293 294 295 296 297 297 297 298 297 297 298
276 277 277 277 276 276 277 278 279 282 284 285 287 289 291 292 293 294 295 296 297 296 295 295 294 294 294 293 292 292 293 294 294 294 294 295 296 296 296 297 297 297 297
277 277 277 277 276 276 276 277 279 280 282 285 287 289 290 291 292 293 295 296 295 294 295 295 294 293 293 292 290 291 293 293 293 293 294 295 296 297 297 298 298 298 298
277 277 276 277 277 277 277 278 279 280 283 286 287 288 289 290 291 292 293 294 294 294 294 293 293 292 292 292 291 292 292 293 292 292 293 293 293 294 295 296 297 297 297
Height
5903 5902 5902 5901 5900 5900 5899 5898 5897 5895 5894 5893 5892 5891 5889 5888 5887 5885 5884 5882 5880 5878 5876 5874 5871 5869 5867 5864 5861 5859 5856 5854 5852 5850 5848 5846 5844 5842 5840 5839 5837 5835 5834
5903 5902 5901 5900 5900 5899 5898 5897 5896 5894 5893 5892 5890 5889 5888 5887 5885 5884 5882 5880 5878 5876 5874 5872 5869 5866 5864 5861 5859 5856 5854 5851 5849 5847 5845 5842 5840 5838 5837 5835 5833 5831 5830
5902 5901 5900 5900 5899 5898 5897 5896 5895 5893 5892 5890 5889 5888 5886 5885 5884 5882 5880 5878 5876 5874 5872 5869 5867 5864 5861 5859 5856 5854 5851 5848 5846 5844 5842 5839 5837 5835 5833 5831 5829 5827 5826
5901 5900 5900 5899 5898 5897 5896 5895 5893 5892 5891 5889 5888 5886 5885 5883 5882 5880 5878 5876 5873 5871 5869 5867 5864 5861 5859 5856 5853 5850 5848 5845 5843 5840 5838 5836 5833 5831 5829 5827 5825 5823 5822
5900 5899 5898 5897 5896 5895 5894 5893 5892 5890 5889 5887 5886 5884 5883 5881 5879 5877 5875 5873 5871 5868 5866 5863 5861 5858 5855 5852 5850 5847 5844 5842 5839 5837 5834 5832 5830 5827 5825 5823 5821 5819 5817
5898 5897 5896 5896 5895 5894 5893 5891 5890 5889 5887 5885 5884 5882 5880 5878 5877 5875 5872 5870 5868 5865 5863 5860 5857 5854 5851 5849 5846 5843 5841 5838 5835 5833 5830 5827 5825 5823 5820 5818 5816 5814 5812
5895 5895 5894 5894 5893 5892 5891 5889 5888 5886 5885 5883 5881 5879 5878 5876 5874 5872 5870 5867 5864 5862 5859 5856 5853 5850 5847 5844 5841 5839 5836 5833 5831 5828 5826 5823 5820 5817 5815 5813 5811 5809 5807
5893 5892 5892 5891 5890 5889 5888 5886 5885 5883 5882 5880 5878 5876 5875 5873 5871 5868 5866 5864 5861 5858 5855 5852 5849 5846 5843 5840 5837 5834 5831 5828 5826 5823 5820 5818 5815 5812 5810 5808 5805 5803 5801
5889 5889 5888 5888 5887 5886 5884 5883 5881 5880 5878 5876 5874 5873 5871 5869 5867 5864 5862 5859 5857 5854 5851 5847 5844 5841 5838 5835 5832 5829 5826 5823 5820 5817 5815 5811 5808 5806 5803 5801 5799 5797 5795
5886 5885 5885 5884 5883 5882 5880 5879 5877 5875 5873 5872 5870 5868 5866 5864 5862 5859 5857 5854 5852 5849 5846 5842 5839 5836 5833 5830 5827 5824 5821 5817 5814 5811 5809 5806 5802 5800 5797 5795 5793 5791 5788
5881 5881 5880 5879 5878 5877 5875 5874 5872 5871 5869 5867 5866 5864 5861 5859 5856 5854 5851 5848 5846 5843 5840 5837 5833 5830 5827 5824 5821 5818 5815 5811 5808 5805 5802 5799 5797 5794 5791 5788 5786 5783 5781
5876 5875 5875 5874 5873 5872 5871 5869 5867 5865 5864 5862 5860 5858 5856 5853 5851 5848 5845 5842 5840 5837 5834 5831 5828 5824 5821 5818 5815 5811 5808 5805 5801 5798 5795 5793 5790 5788 5785 5782 5779 5776 5773
5870 5870 5869 5868 5867 5866 5865 5863 5861 5859 5857 5855 5853 5852 5850 5847 5845 5842 5839 5836 5833 5830 5827 5824 5821 5818 5815 5812 5808 5805 5801 5798 5795 5792 5789 5786 5783 5780 5778 5775 5771 5769 5766
5863 5863 5862 5861 5860 5859 5858 5856 5855 5853 5851 5849 5847 5845 5843 5841 5838 5835 5832 5829 5826 5823 5820 5817 5814 5811 5808 5805 5801 5798 5795 5791 5788 5785 5782 5779 5776 5773 5770 5767 5764 5761 5758
5856 5855 5855 5854 5853 5852 5850 5849 5847 5846 5844 5842 5840 5838 5835 5833 5830 5827 5825 5822 5819 5816 5813 5810 5807 5804 5801 5798 5794 5791 5788 5784 5781 5777 5774 5771 5768 5766 5763 5760 5757 5753 5750
5847 5847 5847 5846 5845 5844 5843 5841 5839 5838 5836 5834 5832 5830 5828 5825 5822 5819 5817 5814 5811 5808 5805 5802 5799 5796 5793 5790 5786 5783 5780 5776 5773 5770 5766 5763 5760 5757 5754 5751 5748 5744 5741
5838 5838 5838 5837 5837 5836 5834 5832 5831 5830 5828 5826 5824 5822 5819 5817 5814 5811 5808 5805 5802 5799 5796 5793 5790 5787 5784 5781 5778 5774 5771 5768 5765 5761 5758 5755 5752 5749 5746 5742 5739 5736 5732
5829 5829 5829 5828 5827 5826 5825 5824 5822 5821 5819 5817 5815 5813 5810 5808 5805 5802 5799 5796 5793 5790 5787 5784 5780 5777 5774 5771 5768 5765 5762 5759 5755 5752 5749 5746 5743 5740 5736 5733 5730 5727 5723
5820 5820 5819 5818 5817 5816 5815 5814 5812 5811 5809 5807 5805 5803 5801 5798 5795 5793 5790 5787 5784 5780 5777 5774 5770 5767 5764 5761 5758 5755 5752 5749 5746 5743 5740 5736 5733 5730 5727 5724 5720 5717 5713
5809 5809 5809 5808 5807 5806 5805 5803 5802 5800 5799 5797 5795 5793 5790 5787 5785 5782 5779 5776 5773 5769 5766 5763 5760 5757 5754 5751 5748 5745 5742 5739 5736 5733 5730 5727 5724 5720 5717 5714 5710 5707 5703
5798 5798 5797 5796 5795 5794 5793 5792 5791 5789 5787 5785 5784 5783 5780 5777 5774 5771 5769 5766 5763 5759 5756 5753 5750 5747 5743 5740 5737 5734 5732 5729 5726 5723 5720 5717 5713 5710 5707 5704 5700 5696 5693
5785 5785 5784 5784 5783 5783 5782 5781 5779 5778 5776 5774 5773 5771 5769 5766 5763 5761 5758 5755 5751 5748 5745 5741 5738 5735 5732 5729 5726 5723 5721 5718 5715 5712 5709 5706 5703 5700 5697 5693 5690 5686 5683
5774 5774 5773 5772 5771 5771 5770 5769 5768 5767 5765 5763 5761 5760 5758 5755 5752 5749 5746 5743 5740 5737 5733 5730 5727 5724 5721 5718 5715 5712 5710 5707 5705 5702 5699 5696 5693 5689 5686 5683 5679 5676 5672
5763 5762 5761 5760 5759 5758 5758 5757 5756 5755 5754 5752 5750 5748 5746 5744 5741 5738 5734 5731 5728 5724 5720 5718 5715 5712 5709 5707 5704 5701 5698 5696 5694 5691 5688 5685 5682 5678 5675 5672 5668 5665 5662
5752 5751 5750 5749 5747 5747 5747 5746 5744 5743 5742 5740 5739 5737 5734 5732 5729 5726 5723 5719 5716 5712 5708 5706 5703 5701 5698 5696 5693 5690 5688 5685 5682 5680 5677 5674 5671 5667 5664 5661 5658 5655 5651
5741 5739 5739 5738 5736 5736 5735 5733 5732 5731 5730 5728 5727 5724 5722 5719 5716 5714 5711 5707 5704 5701 5698 5695 5693 5690 5687 5685 5682 5680 5677 5674 5671 5668 5665 5663 5660 5657 5654 5651 5648 5644 5641